Regional Weather Roundup
Issued by NWS

Home | Current Version | Previous Version | Graphics & Text | Print | Product List | Glossary On
Versions: 1 2 3 4 5 6 7 8 9 10 11 12 13 14 15 16 17 18 19 20 21 22 23 24 25 26 27 28 29 30 31 32 33 34 35 36 37 38 39 40 41 42 43 44 45 46 47 48 49 50
000
ASUS45 KCYS 050410
RWRWY

WYOMING REGIONAL WEATHER ROUNDUP
NATIONAL WEATHER SERVICE CHEYENNE WY
1000 PM MDT TUE AUG 04 2015

NOTE:  "FAIR" INDICATES FEW OR NO CLOUDS BELOW 12,000 FEET
WITH NO SIGNIFICANT WEATHER AND/OR OBSTRUCTIONS TO VISIBILITY.

WYZ001-050500-
YELLOWSTONE NATIONAL PARK

CITY           SKY/WX    TMP DP  RH WIND       PRES   REMARKS
LK YELLOWSTONE   N/A     45  44  97 VRB3      30.31R
W YELLOWSTONE  NOT AVBL

$$
WYZ002>013-054>058-071-098>099-050500-
NORTHERN WYOMING

CITY           SKY/WX    TMP DP  RH WIND       PRES   REMARKS
JACKSON        NOT AVBL
CODY           FAIR      59  46  63 CALM      30.13R
GREYBULL       FAIR      68  53  58 E3        30.05S
WORLAND        FAIR      66  54  65 NE8       30.06R
SHERIDAN       FAIR      64  55  72 W8        30.06R
BUFFALO        FAIR      60  54  80 W6        30.12R
GILLETTE       FAIR      63  55  75 CALM      30.05R
HULETT         CLOUDY    63  55  77 CALM      30.04R
NEWCASTLE      FAIR      63  55  77 CALM      30.04S

$$
WYZ014>020-022>026-101>103-050500-
CENTRAL WYOMING

CITY           SKY/WX    TMP DP  RH WIND       PRES   REMARKS
BIG PINEY      FAIR      62  46  55 NW7       30.26R
PINEDALE       FAIR      59  46  63 NW3       30.27R
DUBOIS         FAIR      55  41  58 NW8       30.26R
LANDER         FAIR      72  42  34 NW6       30.11R
RIVERTON       FAIR      73  48  41 NE10      30.12R
CASPER         FAIR      66  54  65 E8        30.12R
DOUGLAS        FAIR      62  54  74 VRB3      30.12R

$$
WYZ021-027>030-104>119-050500-
SOUTHERN WYOMING

CITY           SKY/WX    TMP DP  RH WIND       PRES   REMARKS
EVANSTON       FAIR      70  33  25 CALM      30.24S
KEMMERER       FAIR      61  34  36 N9        30.27R
FORT BRIDGER   CLEAR     70  37  30 W3        30.27R
ROCK SPRINGS   FAIR      69  38  32 SW5       30.23R
DIXON          FAIR      62  38  41 NE5       30.25R
RAWLINS        FAIR      65  41  41 W6        30.23R
SARATOGA       FAIR      63  34  34 SW10      30.26R
LARAMIE        FAIR      59  40  49 NW8       30.26R
CHEYENNE       FAIR      62  56  80 W5        30.20R
TORRINGTON     FAIR      65  60  84 SE3       30.06R
PINE BLUFFS    FAIR      59  54  82 CALM      30.14R

$$


USA.gov is the U.S. government's official web portal to all federal, state and local government web resources and services.